| time (UTC) | temp F | wind direction | speed MPH | gust MPH | rain 1hr in | rain 24hr in | rain mn in | humidity % | barometer mb |
| 20260504045327 | 37 | 213 | 0.0 | 0.0 | 0.00 | 0.00 | 0.00 | 86 | 1014.0 |
| 20260504043827 | 38 | 213 | 0.0 | 1.0 | 0.00 | 0.00 | 0.00 | 86 | 1014.0 |
| 20260504042327 | 38 | 243 | 0.0 | 1.0 | 0.00 | 0.00 | 0.00 | 85 | 1014.0 |
| 20260504040827 | 38 | 221 | 0.0 | 1.0 | 0.00 | 0.00 | 0.00 | 84 | 1014.0 |
| 20260504035327 | 39 | 221 | 0.0 | 0.0 | 0.00 | 0.00 | 0.00 | 83 | 1013.9 |
| 20260504033827 | 39 | 221 | 0.0 | 0.0 | 0.00 | 0.00 | 0.00 | 83 | 1014.0 |
| 20260504032327 | 40 | 221 | 0.0 | 1.0 | 0.00 | 0.00 | 0.00 | 82 | 1013.9 |
| 20260504030827 | 40 | 221 | 0.0 | 0.0 | 0.00 | 0.00 | 0.00 | 81 | 1013.7 |
| 20260504025327 | 41 | 221 | 0.0 | 0.0 | 0.00 | 0.00 | 0.00 | 80 | 1013.7 |
| 20260504023827 | 42 | 221 | 0.0 | 0.0 | 0.00 | 0.00 | 0.00 | 78 | 1013.8 |
| 20260504022327 | 42 | 221 | 0.0 | 1.0 | 0.00 | 0.00 | 0.00 | 75 | 1013.8 |
| 20260504020827 | 43 | 221 | 0.0 | 1.0 | 0.00 | 0.00 | 0.00 | 75 | 1013.7 |
| 20260504015327 | 44 | 221 | 0.0 | 1.0 | 0.00 | 0.00 | 0.00 | 72 | 1013.7 |
| 20260504013827 | 45 | 221 | 0.0 | 0.0 | 0.00 | 0.00 | 0.00 | 71 | 1013.5 |
| 20260504012327 | 46 | 221 | 0.0 | 1.0 | 0.00 | 0.00 | 0.00 | 69 | 1013.3 |
| 20260504010827 | 47 | 221 | 0.0 | 1.0 | 0.00 | 0.00 | 0.00 | 66 | 1013.2 |
| 20260504005327 | 48 | 221 | 0.0 | 1.0 | 0.00 | 0.00 | 0.00 | 63 | 1013.2 |
| 20260504003827 | 50 | 221 | 0.0 | 2.0 | 0.00 | 0.00 | 0.00 | 56 | 1013.0 |
| 20260504002327 | 52 | 226 | 0.0 | 2.0 | 0.00 | 0.00 | 0.00 | 50 | 1012.9 |
| 20260504000827 | 55 | 267 | 0.0 | 5.0 | 0.00 | 0.00 | 0.00 | 42 | 1012.8 |
| 20260503235327 | 56 | 167 | 0.0 | 2.0 | 0.00 | 0.00 | 0.00 | 44 | 1012.8 |
| 20260503233827 | 57 | 85 | 2.0 | 3.0 | 0.00 | 0.00 | 0.00 | 37 | 1012.7 |
| 20260503232328 | 58 | 193 | 1.0 | 6.0 | 0.00 | 0.00 | 0.00 | 36 | 1012.7 |
| 20260503230828 | 58 | 237 | 3.0 | 7.0 | 0.00 | 0.00 | 0.00 | 37 | 1012.5 |
| 20260503225328 | 58 | 97 | 0.0 | 6.0 | 0.00 | 0.00 | 0.00 | 36 | 1012.5 |
| 20260503223828 | 59 | 214 | 3.0 | 8.0 | 0.00 | 0.00 | 0.00 | 35 | 1012.6 |
| 20260503222328 | 59 | 43 | 1.0 | 9.0 | 0.00 | 0.00 | 0.00 | 36 | 1012.5 |
| 20260503220828 | 60 | 104 | 2.0 | 10.0 | 0.00 | 0.00 | 0.00 | 34 | 1012.7 |
| 20260503215328 | 60 | 148 | 1.0 | 14.0 | 0.00 | 0.00 | 0.00 | 33 | 1012.8 |
| 20260503213828 | 60 | 32 | 3.0 | 7.0 | 0.00 | 0.00 | 0.00 | 33 | 1012.7 |
| 20260503212328 | 60 | 34 | 4.0 | 11.0 | 0.00 | 0.00 | 0.00 | 33 | 1012.8 |
| 20260503210828 | 60 | 43 | 5.0 | 14.0 | 0.00 | 0.00 | 0.00 | 33 | 1012.8 |
| 20260503205328 | 60 | 171 | 1.0 | 14.0 | 0.00 | 0.00 | 0.00 | 33 | 1012.8 |
| 20260503203828 | 59 | 8 | 4.0 | 11.0 | 0.00 | 0.00 | 0.00 | 34 | 1012.8 |
| 20260503202328 | 59 | 113 | 3.0 | 17.0 | 0.00 | 0.00 | 0.00 | 34 | 1012.8 |
| 20260503200828 | 59 | 35 | 9.0 | 17.0 | 0.00 | 0.00 | 0.00 | 33 | 1013.0 |
| 20260503195328 | 60 | 27 | 11.0 | 14.0 | 0.00 | 0.00 | 0.00 | 33 | 1013.0 |
| 20260503193828 | 59 | 352 | 8.0 | 16.0 | 0.00 | 0.00 | 0.00 | 34 | 1013.3 |
| 20260503192328 | 59 | 25 | 3.0 | 11.0 | 0.00 | 0.00 | 0.00 | 33 | 1013.6 |
| 20260503190828 | 59 | 28 | 7.0 | 13.0 | 0.00 | 0.00 | 0.00 | 35 | 1013.7 |
| 20260503185328 | 58 | 5 | 11.0 | 17.0 | 0.00 | 0.00 | 0.00 | 35 | 1013.8 |
| 20260503183828 | 58 | 134 | 5.0 | 12.0 | 0.00 | 0.00 | 0.00 | 36 | 1014.0 |
| 20260503182328 | 57 | 46 | 6.0 | 15.0 | 0.00 | 0.00 | 0.00 | 36 | 1014.2 |
| 20260503180828 | 58 | 163 | 2.0 | 12.0 | 0.00 | 0.00 | 0.00 | 36 | 1014.3 |
| 20260503175328 | 57 | 293 | 1.0 | 14.0 | 0.00 | 0.00 | 0.00 | 38 | 1014.3 |
| 20260503173828 | 56 | 125 | 4.0 | 15.0 | 0.00 | 0.00 | 0.00 | 37 | 1014.6 |
| 20260503172328 | 56 | 51 | 2.0 | 18.0 | 0.00 | 0.00 | 0.00 | 37 | 1014.6 |
| 20260503170828 | 56 | 50 | 7.0 | 16.0 | 0.00 | 0.00 | 0.00 | 36 | 1014.8 |
| 20260503150828 | 52 | 136 | 5.0 | 11.0 | 0.00 | 0.00 | 0.00 | 43 | 1016.0 |
| 20260503130829 | 46 | 42 | 6.0 | 13.0 | 0.00 | 0.00 | 0.00 | 56 | 1016.5 |
| 20260503080829 | 38 | 257 | 1.0 | 2.0 | 0.00 | 0.00 | 0.00 | 69 | 1014.8 |
| 20260503072329 | 39 | 168 | 2.0 | 2.0 | 0.00 | 0.00 | 0.00 | 66 | 1014.4 |
| 20260503070829 | 40 | 243 | 1.0 | 3.0 | 0.00 | 0.00 | 0.00 | 65 | 1014.3 |
| 20260503053830 | 41 | 268 | 1.0 | 3.0 | 0.00 | 0.00 | 0.00 | 64 | 1014.3 |
| 20260503052330 | 42 | 326 | 1.0 | 2.0 | 0.00 | 0.00 | 0.00 | 64 | 1014.1 |
| 20260503050830 | 42 | 25 | 0.0 | 2.0 | 0.00 | 0.00 | 0.00 | 62 | 1014.4 |